Terminal Aerodrome Forecast
Issued by NWS Jacksonville, FL

Home | Current Version | Previous Version | Text Only | Print | Product List | Glossary On
Versions: 1 2 3 4 5 6 7 8 9 10 11 12 13 14 15 16 17 18 19 20 21
000
FTUS42 KJAX 231429 AAA
TAFGNV
TAF AMD
KGNV 231429Z 2314/2412 16005KT P6SM FEW040 SCT250
     FM232100 19008KT P6SM VCTS SCT045CB SCT150 BKN250
      TEMPO 2321/2401 VRB15G30KT 3SM +TSRA BR SCT025 BKN040CB OVC120
     FM240300 VRB03KT P6SM SCT030 BKN150 OVC250
     FM240800 00000KT P6SM SCT150 BKN250=

USA.gov is the U.S. government's official web portal to all federal, state and local government web resources and services.